Regional Weather Roundup
Issued by NWS Little Rock, AR

Home | Current Version | Previous Version | Graphics & Text | Print | Product List | Glossary On
Versions: 1 2 3 4 5 6 7 8 9 10 11 12 13 14 15 16 17 18 19 20 21 22 23 24 25 26 27 28 29 30 31 32 33 34 35 36 37 38 39 40 41 42 43 44 45 46 47 48 49
000
ASUS44 KLZK 292105
RWRLZK

WEATHER ROUNDUP FOR ARKANSAS
NATIONAL WEATHER SERVICE LITTLE ROCK AR
400 PM CDT SAT AUG 29 2015

NOTE: "FAIR" INDICATES FEW OR NO CLOUDS BELOW 12,000 FEET WITH NO
SIGNIFICANT WEATHER AND/OR OBSTRUCTIONS TO VISIBILITY.

ARZ001-003-010-029-292200-
NORTHWEST ARKANSAS

CITY           SKY/WX    TMP DP  RH WIND       PRES   REMARKS
FAYETTEVILLE   FAIR      83  69  62 S14       29.99F HX  86
FORT SMITH     FAIR      89  66  46 E9        29.95F HX  91
BENTONVILLE    FAIR      88  66  48 S6        30.00S HX  90
ROGERS         FAIR      86  69  56 SW12      29.99F HX  90
SILOAM SPGS    PTSUNNY   86  66  51 SW10      29.97F HX  88
HIGHFILL       PTSUNNY   87  70  56 SW10      29.98F HX  92
SPRINGDALE     MOSUNNY   86  68  54 SW10G16   30.01F HX  89
$$

ARZ004-005-016-292200-
NORTH CENTRAL ARKANSAS

CITY           SKY/WX    TMP DP  RH WIND       PRES   REMARKS
BATESVILLE     FAIR      77  70  78 CALM      30.01F
FLIPPIN        FAIR      82  66  57 S6        29.99F HX  85
MTN HOME       FAIR      80  67  64 S9        30.01F
$$

ARZ040-041-292200-
WEST CENTRAL ARKANSAS

CITY           SKY/WX    TMP DP  RH WIND       PRES   REMARKS
MENA           FAIR      88  70  55 S3        30.02F HX  92
MOUNT IDA      FAIR      84  69  60 CALM      30.00F HX  88
$$

ARZ009-017-025-026-028-292200-
NORTHEAST ARKANSAS

CITY           SKY/WX    TMP DP  RH WIND       PRES   REMARKS
JONESBORO      FAIR      82  68  62 SW3       30.01S HX  85
NEWPORT        CLOUDY    81  69  66 NW9       30.02S
WALNUT RIDGE   FAIR      82  63  51 S8        30.01F
BLYTHEVILLE    FAIR      87  66  49 SW7       30.00F HX  89
$$

ARZ022-023-033-042-044-292200-
CENTRAL ARKANSAS

CITY           SKY/WX    TMP DP  RH WIND       PRES   REMARKS
LITTLE ROCK    CLOUDY    88  59  37 S7        29.99F HX  87
N LITTLE ROCK  CLOUDY    83  69  62 W3        29.99F HX  86
JACKSONVILLE   FAIR      86  62  45 S6        29.99F HX  86
SEARCY         FAIR      84  68  58 CALM      30.01F HX  87
HOT SPRINGS    FAIR      84  68  58 CALM      30.01F HX  87
RUSSELLVILLE   FAIR      83  65  54 VRB3      30.00F HX  85
$$

ARZ036-292200-
EAST ARKANSAS

CITY           SKY/WX    TMP DP  RH WIND       PRES   REMARKS
WEST MEMPHIS   FAIR      91  64  40 S5        29.98F HX  92
$$

ARZ050-053-066-070-073-292200-
SOUTHWEST ARKANSAS

CITY           SKY/WX    TMP DP  RH WIND       PRES   REMARKS
ARKADELPHIA    FAIR      88  71  56 SW7       30.00F HX  93
CAMDEN         FAIR      91  64  40 SE5       29.99F HX  93
TEXARKANA      FAIR      87  70  56 SE7       30.00F HX  92
EL DORADO      FAIR      91  60  35 SW7       29.99F HX  90
DE QUEEN       FAIR      86  71  60 E8        29.97F HX  91
$$

ARZ056-057-069-292200-
SOUTHEAST ARKANSAS

CITY           SKY/WX    TMP DP  RH WIND       PRES   REMARKS
PINE BLUFF     FAIR      89  62  40 SW6       29.99F HX  89
STUTTGART      FAIR      90  61  37 S8        30.00F HX  89
MONTICELLO     PTSUNNY   92  62  36 VRB5      29.99F HX  92

$$





USA.gov is the U.S. government's official web portal to all federal, state and local government web resources and services.